When you browse on this site, cookies collect data to enhance your experience and personalize the content and advertising you see.
Visit our Privacy Policy to learn more. By continuing to use the site, you agree to this use of cookies and data.
  • In Portugal
  • List of Countries
  • For 7 days
  • Water Temperature
  • Satellite Maps
  • Weather Map
  • Weather Widgets
  • user-avatar
    Login

    Hourly Weather Cieszow

    Today, 16 December, Sunday

    Time Temperature Precipitation Wind Pressure Humidity
    00:00 -5°C° 0 mm 2 mps 732 mmHg 89%
    01:00 -5°C° 0 mm 2 mps 731 mmHg 89%
    02:00 -5°C° 0 mm 2 mps 731 mmHg 89%
    03:00 -5°C° 0 mm 2 mps 731 mmHg 89%
    04:00 -5°C° 0 mm 2 mps 730 mmHg 89%
    05:00 -3°C° 0 mm 1 mps 730 mmHg 90%
    06:00 -4°C° 0 mm 1 mps 730 mmHg 90%
    07:00 -4°C° 0 mm 1 mps 729 mmHg 91%
    08:00 -3°C° 0 mm 1 mps 729 mmHg 88%
    09:00 -3°C° 0 mm 1 mps 729 mmHg 85%
    10:00 -5°C° 0 mm 2 mps 729 mmHg 82%
    11:00 -4°C° 0 mm 2 mps 729 mmHg 79%
    12:00 -3°C° 0 mm 2 mps 729 mmHg 75%
    13:00 -3°C° 0 mm 2 mps 728 mmHg 71%
    14:00 -3°C° 0 mm 2 mps 728 mmHg 74%
    15:00 -4°C° 0 mm 2 mps 728 mmHg 77%
    16:00 -5°C° 0 mm 2 mps 728 mmHg 80%
    17:00 -5°C° 0 mm 2 mps 728 mmHg 80%
    18:00 -6°C° 0 mm 3 mps 728 mmHg 80%
    19:00 -5°C° 0 mm 3 mps 728 mmHg 79%
    20:00 -6°C° 0 mm 3 mps 728 mmHg 79%
    21:00 -6°C° 0 mm 3 mps 728 mmHg 78%
    22:00 -5°C° 0 mm 2 mps 728 mmHg 78%
    23:00 -5°C° 0 mm 2 mps 728 mmHg 79%

    Tomorrow, 17 December, Monday

    Time Temperature Precipitation Wind Pressure Humidity
    00:00 -5°C° 0 mm 2 mps 728 mmHg 80%
    01:00 -5°C° 0 mm 2 mps 729 mmHg 82%
    02:00 -5°C° 0 mm 2 mps 729 mmHg 82%
    03:00 -4°C° 0 mm 2 mps 729 mmHg 83%
    04:00 -4°C° 0 mm 2 mps 729 mmHg 84%
    05:00 -4°C° 0 mm 2 mps 729 mmHg 84%
    06:00 -3°C° 0 mm 2 mps 730 mmHg 84%
    07:00 -3°C° 0 mm 2 mps 730 mmHg 84%
    08:00 -2°C° 0 mm 2 mps 730 mmHg 83%
    09:00 -2°C° 0 mm 2 mps 731 mmHg 82%
    10:00 -2°C° 0 mm 2 mps 731 mmHg 81%
    11:00 -1°C° 0 mm 2 mps 731 mmHg 80%
    12:00 +2°C° 0 mm 1 mps 732 mmHg 79%
    13:00 +3°C° 0 mm 1 mps 732 mmHg 78%
    14:00 +2°C° 0 mm 1 mps 732 mmHg 81%
    15:00 +1°C° 0 mm 1 mps 733 mmHg 84%
    16:00 0°C° 0 mm 1 mps 733 mmHg 87%
    17:00 0°C° 0 mm 1 mps 733 mmHg 87%
    18:00 -1°C° 0 mm 1 mps 734 mmHg 88%
    19:00 -1°C° 0 mm 1 mps 734 mmHg 88%
    20:00 -1°C° 0 mm 1 mps 734 mmHg 88%
    21:00 -1°C° 0 mm 1 mps 735 mmHg 88%
    22:00 -3°C° 0 mm 2 mps 735 mmHg 88%
    23:00 -3°C° 0 mm 2 mps 735 mmHg 88%

    Day after tomorrow, 18 December, Tuesday

    Time Temperature Precipitation Wind Pressure Humidity
    00:00 -3°C° 0 mm 2 mps 735 mmHg 89%
    01:00 -3°C° 0 mm 2 mps 735 mmHg 89%
    02:00 -2°C° 0 mm 2 mps 735 mmHg 89%
    03:00 -2°C° 0 mm 2 mps 735 mmHg 90%
    04:00 -2°C° 0 mm 2 mps 735 mmHg 90%
    05:00 -2°C° 0.1 mm 2 mps 735 mmHg 90%
    06:00 0°C° 0.1 mm 1 mps 735 mmHg 90%
    07:00 +1°C° 0.1 mm 1 mps 735 mmHg 90%
    08:00 +1°C° 0 mm 1 mps 736 mmHg 89%
    09:00 +1°C° 0 mm 1 mps 736 mmHg 88%
    10:00 +2°C° 0 mm 1 mps 736 mmHg 87%
    11:00 +2°C° 0 mm 1 mps 736 mmHg 87%
    12:00 +3°C° 0 mm 1 mps 736 mmHg 87%
    13:00 +3°C° 0 mm 1 mps 736 mmHg 86%
    14:00 +1°C° 0 mm 0 mps 736 mmHg 88%
    15:00 +1°C° 0 mm 0 mps 735 mmHg 89%
    16:00 0°C° 0 mm 0 mps 735 mmHg 91%
    17:00 0°C° 0 mm 0 mps 735 mmHg 91%
    18:00 0°C° 0 mm 1 mps 735 mmHg 91%
    19:00 0°C° 0 mm 1 mps 735 mmHg 92%
    20:00 0°C° 0 mm 1 mps 735 mmHg 91%
    21:00 0°C° 0 mm 1 mps 735 mmHg 91%
    22:00 -2°C° 0 mm 2 mps 734 mmHg 91%
    23:00 -3°C° 0 mm 2 mps 734 mmHg 91%

    19 December, Wednesday

    Time Temperature Precipitation Wind Pressure Humidity
    00:00 -3°C° 0 mm 2 mps 734 mmHg 91%
    01:00 -3°C° 0 mm 2 mps 734 mmHg 91%
    02:00 -3°C° 0 mm 2 mps 733 mmHg 91%
    03:00 -3°C° 0 mm 2 mps 733 mmHg 91%
    04:00 -3°C° 0 mm 2 mps 733 mmHg 90%
    05:00 -3°C° 0 mm 2 mps 733 mmHg 90%
    06:00 -3°C° 0 mm 2 mps 733 mmHg 90%
    07:00 -4°C° 0 mm 3 mps 733 mmHg 89%
    08:00 -2°C° 0 mm 3 mps 733 mmHg 88%
    09:00 -2°C° 0 mm 3 mps 733 mmHg 86%
    10:00 -1°C° 0 mm 3 mps 733 mmHg 84%
    11:00 -1°C° 0 mm 3 mps 733 mmHg 82%
    12:00 0°C° 0 mm 3 mps 732 mmHg 81%
    13:00 +1°C° 0 mm 3 mps 732 mmHg 80%
    14:00 0°C° 0 mm 3 mps 732 mmHg 82%
    15:00 -1°C° 0 mm 3 mps 732 mmHg 85%
    16:00 -2°C° 0 mm 3 mps 731 mmHg 87%
    17:00 -2°C° 0 mm 3 mps 731 mmHg 87%
    18:00 -2°C° 0 mm 3 mps 731 mmHg 86%
    19:00 -2°C° 0 mm 3 mps 731 mmHg 85%
    20:00 -2°C° 0 mm 3 mps 731 mmHg 84%
    21:00 -2°C° 0 mm 3 mps 731 mmHg 82%
    22:00 -2°C° 0 mm 3 mps 731 mmHg 80%
    23:00 -2°C° 0 mm 3 mps 731 mmHg 78%

    20 December, Thursday

    Time Temperature Precipitation Wind Pressure Humidity
    00:00 -2°C° 0 mm 3 mps 730 mmHg 77%
    01:00 -2°C° 0 mm 3 mps 730 mmHg 76%
    02:00 -2°C° 0 mm 3 mps 730 mmHg 76%
    03:00 -2°C° 0 mm 3 mps 730 mmHg 76%
    04:00 -4°C° 0 mm 3 mps 730 mmHg 77%
    05:00 -4°C° 0 mm 3 mps 730 mmHg 78%
    06:00 -4°C° 0 mm 3 mps 730 mmHg 79%
    07:00 -4°C° 0 mm 3 mps 730 mmHg 80%
    08:00 -4°C° 0 mm 3 mps 730 mmHg 79%
    09:00 -2°C° 0 mm 3 mps 730 mmHg 77%
    10:00 -2°C° 0 mm 3 mps 730 mmHg 76%
    11:00 -2°C° 0 mm 3 mps 730 mmHg 75%
    12:00 -2°C° 0 mm 3 mps 730 mmHg 74%
    13:00 -1°C° 0 mm 3 mps 730 mmHg 73%
    14:00 -2°C° 0 mm 3 mps 730 mmHg 76%
    15:00 -2°C° 0 mm 3 mps 730 mmHg 79%
    16:00 -3°C° 0 mm 2 mps 730 mmHg 81%
    17:00 -3°C° 0 mm 2 mps 730 mmHg 82%
    18:00 -3°C° 0 mm 2 mps 730 mmHg 82%
    19:00 -3°C° 0 mm 2 mps 730 mmHg 82%
    20:00 -3°C° 0 mm 2 mps 730 mmHg 83%
    21:00 -3°C° 0 mm 2 mps 730 mmHg 83%
    22:00 -3°C° 0 mm 2 mps 730 mmHg 84%
    23:00 -2°C° 0.2 mm 2 mps 731 mmHg 85%

    21 December, Friday

    Time Temperature Precipitation Wind Pressure Humidity
    00:00 -2°C° 0.2 mm 3 mps 731 mmHg 85%
    01:00 -2°C° 0.2 mm 3 mps 731 mmHg 86%
    02:00 -2°C° 0.3 mm 3 mps 731 mmHg 87%
    03:00 -2°C° 0.3 mm 3 mps 731 mmHg 89%
    04:00 -2°C° 0.3 mm 3 mps 731 mmHg 90%
    05:00 -1°C° 0.2 mm 2 mps 731 mmHg 91%
    06:00 -1°C° 0.2 mm 2 mps 731 mmHg 91%
    07:00 -1°C° 0.2 mm 2 mps 731 mmHg 92%
    08:00 -1°C° 0.1 mm 2 mps 731 mmHg 91%
    09:00 -1°C° 0.1 mm 2 mps 731 mmHg 91%
    10:00 +1°C° 0.1 mm 2 mps 732 mmHg 90%
    11:00 +1°C° 0 mm 2 mps 731 mmHg 90%
    12:00 +1°C° 0 mm 2 mps 731 mmHg 89%
    13:00 +2°C° 0 mm 2 mps 731 mmHg 89%
    14:00 +1°C° 0 mm 2 mps 731 mmHg 89%
    15:00 -1°C° 0 mm 2 mps 731 mmHg 90%
    16:00 -1°C° 0 mm 2 mps 731 mmHg 91%
    17:00 -2°C° 0 mm 2 mps 731 mmHg 91%
    18:00 -2°C° 0 mm 2 mps 731 mmHg 91%
    19:00 -2°C° 0 mm 2 mps 731 mmHg 91%
    20:00 -2°C° 0 mm 3 mps 730 mmHg 91%
    21:00 -2°C° 0 mm 3 mps 730 mmHg 90%
    22:00 -2°C° 0 mm 3 mps 730 mmHg 90%
    23:00 -2°C° 0 mm 3 mps 729 mmHg 88%
    Show more